Regional Weather Roundup
Issued by NWS

Home | Current Version | Previous Version | Text Only | Print | Product List | Glossary Off
Versions: 1 2 3 4 5 6 7 8 9 10 11 12 13 14 15 16 17 18 19 20 21 22 23 24 25 26 27 28 29 30 31 32 33 34 35 36 37 38 39 40 41 42 43 44 45 46 47 48 49 50

000
ASUS43 KBIS 280610
RWRND
NORTH DAKOTA REGIONAL WEATHER ROUNDUP
NATIONAL WEATHER SERVICE EASTERN NORTH DAKOTA/GRAND FORKS ND
100 AM CDT WED JUN 28 2017

  NOTE: "FAIR" INDICATES FEW OR NO CLOUDS BELOW 12,000 FEET WITH NO
  SIGNIFICANT WEATHER AND/OR OBSTRUCTIONS TO VISIBILITY.

NDZ001>003-009>011-017-280700-
...NORTHWEST NORTH DAKOTA...

CITY           SKY/WX    TMP DP  RH WIND       PRES   REMARKS
WILLISTON      FAIR      66  57  72 NW10      29.68R
6HR MIN TEMP:  64; 6HR MAX TEMP:  80;

MINOT          FAIR      68  58  70 NW20      29.55R
MINOT AFB      FAIR      67  58  73 NW17      29.55R
6HR MIN TEMP:  67; 6HR MAX TEMP:  80; 6HR PCP: TRACE;

$$

NDZ018>021-031>035-040>046-280700-
...SOUTHWEST NORTH DAKOTA...

CITY           SKY/WX    TMP DP  RH WIND       PRES   REMARKS
BISMARCK       FAIR      66  65  96 NW9       29.54R
DICKINSON      FAIR      65  55  70 NW9       29.65R
GARRISON         N/A     66  59  78 NW12      29.56S
HETTINGER      FAIR      66  54  65 NW14G23   29.66R
$$

NDZ004>008-012>016-024-026-027-054-280700-
...NORTHEAST NORTH DAKOTA...

CITY           SKY/WX    TMP DP  RH WIND       PRES   REMARKS
GRAND FORKS    CLOUDY    67  51  56 SE13      29.56F
GRAND FORKS AF CLOUDY    65  50  56 SE9       29.56F
DEVILS LAKE    LGT RAIN  66  59  78 S14       29.57S
$$

NDZ022-023-025-028>030-036>039-047>053-280700-
...SOUTHEAST NORTH DAKOTA...

CITY           SKY/WX    TMP DP  RH WIND       PRES   REMARKS
JAMESTOWN      FAIR      68  57  68 NE9       29.47F
FARGO          TSTM      63  57  81 S16G31    29.56R
WAHPETON       CLOUDY    63  52  67 SE14G25   29.53F VSB 1
$$




USA.gov is the U.S. government's official web portal to all federal, state and local government web resources and services.